Время (UTC), дата Ветер
(°,м/с) 
Видим.   Явления Облачность Т
(°С)
Тd
(°С)
f(%) Тe
(°С)
Pmin
(гПа)
dP
(гПа)
Po
(мм)
O2
(г/м3)
Тmin Tmax R s Состояние
почвы
00 01.10.13 350 (С) 10 км    3/0 верхняя 
[Ci fib]
+3.7 +1.3 84 +3  1017.6  -0.1  756  300           
03 01.10.13 070 (В) 10 км    4/0 верхняя 
[Ci fib]
+1.5 +0.3 92 +2  1017.5  -0.1  756  303  +1.4         
06 01.10.13 090 (В) 10 км    8/0 верхняя 
[Ci]
+8 +3.7 74 +7  1016.7  -0.5  756  295           
09 01.10.13 090 (В) 10 км    9/0 средняя, верхняя 
[Ac trans|Ci fib]
+9.7 +5.4 75 +9  1016.1  -0.6  755  293           
12 01.10.13 080 (В) 10 км    9/1 1000 м средняя, верхняя 
[Cu hum|Ac trans|Ci fib]
+10.8 +4.3 64 +10  1014  -2  754  291           
15 01.10.13 070 (В) 10 км    10/1 1000 м кучево-дожд., средняя 
[Cb calv|Ac und]
+9.6 +4.3 70 +8  1013.3  -0.7  753  293    +11.6       
18 01.10.13 070 (В) 10 км  слаб. ливневой дождь  10/5 1000 м кучево-дожд., средняя 
[Cb calv|Ac und]
+8.8 +4.7 76 +7  1012.9  -0.3  753  293           
21 01.10.13 060 (СВ) 4000 м  в посл. час ливневой дождь  10/5 1000 м кучево-дожд., средняя 
[Cb calv|Ac und]
+7.3 +6.3 93 +6  1011.3  -1.7  752  294           
00 02.10.13 050 (СВ) 4000 м  слаб. ливневой дождь  10/8 210 м кучево-дожд., средняя 
[Cb calv|Ac und]
+7.4 +7.1 98 +6  1010.8  -0.5  751  294           
03 02.10.13 060 (СВ) 9-13{13}  4000 м  слаб. ливневой дождь  10/8 210 м кучево-дожд., средняя 
[Cb calv|Ac und]
+7.5 +7.1 97 +5  1008.1  -2.7  749  293  +7.2       
06 02.10.13 060 (СВ) 11-14{14}  4000 м  слаб. ливневой дождь  10/8 210 м кучево-дожд., средняя 
[Cb calv|Ac und]
+7.6 +7.2 97 +4  1008.2  0.6  749  293           
09 02.10.13 070 (В) 10-13{14}  2500 м  слаб. ливневой дождь  10/8 240 м кучево-дожд., средняя 
[Cb calv|Ac und]
+7.7 +7.2 97 +5  1007.9  -0.1  749  292           
12 02.10.13 060 (СВ) 12-15{18}  2000 м  слаб. ливневой дождь  10/9 270 м кучево-дожд., средняя 
[Cb calv|Ac trans]
+7.6 +7 96 +4  1007.9  -0.1  749  292           
15 02.10.13 060 (СВ) 12-15{16}  2500 м  слаб. ливневой дождь  10/9 270 м кучево-дожд., средняя 
[Cb calv|Ac und]
+7 +6.4 96 +3  1008.7  0.7  750  293    +7.8  26     
18 02.10.13 060 (СВ) 11-15{16}  3000 м  слаб. ливневой дождь  10/8 240 м кучево-дожд., средняя 
[Cb calv|Ac und]
+6.4 +5.8 96 +3  1009.7  750  295           
21 02.10.13 050 (СВ) 10-15{17}  3000 м  слаб. ливневой дождь  10/8 210 м кучево-дожд., средняя 
[Cb calv|Ac und]
+5.6 +5.1 97 +2  1009.2  -0.4  750  295           
00 03.10.13 060 (СВ) 10-13{17}  3000 м  слаб. ливневой дождь{туман}  10/8 210 м кучево-дожд., средняя 
[Cb calv|Ac und]
+5.9 +5.5 97 +2  1008.7  -0.4  750  295           
03 03.10.13 060 (СВ) 12-15{15}  1200 м  слаб. ливневой дождь  10/8 180 м кучево-дожд., средняя 
[Cb calv|Ac und]
+6.2 +5.9 98 +2  1008  -0.9  749  294  +5.5    10     
06 03.10.13 080 (В) 10-15{15}  1800 м  слаб. дождь{ливн. осадки}  10/10 120 м 
[Frnb|Ns]
+7 +6.8 99 +4  1008.5  0.5  750  293           
09 03.10.13 090 (В) 14-18{16}  2000 м  дождь{ливн. осадки}  10/10 120 м 
[Frnb|Ns]
+7.1 +6.8 98 +3  1009.3  0.5  750  293           
12 03.10.13 080 (В) 11-14{18}  1500 м  слаб. дождь{ливн. осадки}  10/10 150 м 
[Frnb|Ns]
+7 +6.8 99 +4  1011.1  1.7  752  294           
15 03.10.13 080 (В) 9-12{13}  2000 м  слаб. морось{дождь}  10/10 120 м 
[Frnb]
+6.5 +6.4 99 +3  1011.9  0.8  752  295    +7.2  13     
18 03.10.13 080 (В) 9-12{14}  3000 м  слаб. дождь{морось}  10/9 150 м средняя 
[Frnb|As op]
+6.4 +6.1 98 +3  1013.4  1.4  753  296           
21 03.10.13 080 (В) 8-12{13}  3000 м  слаб. ливневой дождь  10/8 120 м кучево-дожд., средняя 
[Cb calv|Ac und]
+5.8 +5.5 98 +3  1013.8  0.3  753  296           
00 04.10.13 080 (В) 7-12{12}  2500 м  слаб. ливневой дождь  10/9 120 м кучево-дожд., средняя 
[Cb calv|Ac und]
+5.4 +5.4 100 +3  1014.2  0.4  754  297           
03 04.10.13 090 (В) 7-10{12}  2500 м  слаб. ливневой дождь  10/9 150 м кучево-дожд., средняя 
[Cb calv|Ac und]
+5.1 +4.8 98 +2  1014.8  0.6  754  298  +5.1       
06 04.10.13 080 (В) 4{12}  4000 м  слаб. морось{ливн. осадки}  10/10 120 м 
[St]
+5.6 +5.2 97 +4  1015.3  0.5  755  297  +4.9         
09 04.10.13 080 (В) 4000 м  дымка{морось}  10/8 150 м средняя 
[St|Ac und]
+6.1 +5.5 96 +4  1016  0.7  755  297           
12 04.10.13 080 (В) 6-10{11}  4000 м  слаб. ливневой дождь  10/8 150 м кучево-дожд., средняя 
[Cb calv|Ac As]
+6 +5.7 98 +4  1016.3  0.3  755  297           
15 04.10.13 070 (В) 8-12{12}  4000 м  слаб. ливневой дождь  10/8 120 м кучево-дожд., средняя 
[Cb calv|Ac und]
+5 +4.9 99 +2  1017.4  756  298    +6.7     
18 04.10.13 070 (В) 7-11{12}  4000 м  слаб. ливневой дождь  10/9 150 м кучево-дожд., средняя 
[Cb calv|As op]
+4.4 +4.1 98 +1  1018.5  757  300           
21 04.10.13 070 (В) 7-10{11}  4000 м  слаб. дождь{ливн. осадки}  10/10 150 м 
[Frnb|Ns]
+3.4 +3 97 1018.5  757  301           
00 05.10.13 050 (СВ) 6{11}  4000 м  слаб. дождь{ливн. осадки}  10/10 240 м 
[Sc]
+3.1 +2.6 96 1018.5  757  301           
03 05.10.13 050 (СВ) 4000 м  слаб. дождь  10/10 300 м 
[Sc]
+2.9 +2.6 98 1019  0.5  757  302  +2.9       
06 05.10.13 040 (СВ) 4000 м  слаб. дождь  10/10 210 м 
[Sc]
+3.1 +2.7 97 +1  1020.2  1.1  758  302  +2.8         
09 05.10.13 050 (СВ) 4000 м  слаб. ливневой дождь  10/8 270 м кучево-дожд., средняя 
[Cb calv|Ac und]
+3.6 +2.7 94 +1  1020.9  0.7  759  301           
12 05.10.13 060 (СВ) 4000 м  слаб. ливневой дождь  10/9 420 м кучево-дожд., средняя 
[Cb calv|Ac und]
+4.9 +2.9 87 +3  1020.9  759  300           
15 05.10.13 040 (СВ) 10 км  слаб. дождь{ливн. осадки}  10/10 630 м 
[Sc]
+4.6 +2.7 87 +3  1021.8  0.9  759  301    +5.2     
18 05.10.13 020 (С) 10 км  {ливн. осадки, дождь}  10/8 630 м средняя 
[Sc|Ac trans]
+3.8 +1.8 87 +2  1022.6  0.8  760  302           
21 05.10.13 010 (С) 10 км    10/5 630 м средняя 
[Sc|Ac trans]
+3.3 +1.8 90 +2  1023  0.3  760  302           
00 06.10.13 350 (С) 10 км    10/0 средняя 
[Ac und]
+3 +1.4 89 +2  1023.6  0.5  761  303           
03 06.10.13 350 (С) 10 км    10/0 средняя 
[Ac und]
+2.5 +1.2 91 +1  1024.3  0.7  761  304  +2.5    0.0     
06 06.10.13 040 (СВ) 10 км    10/5 1080 м средняя 
[Sc|Ac und]
+3 +0.2 82 +2  1025.5  1.2  762  304  +2.4         
09 06.10.13 350 (С) 10 км    10/6 900 м средняя 
[Sc|Ac und]
+4.2 -2.1 64 +4  1026.1  0.5  763  303           
12 06.10.13 310 (СЗ) 10 км    10/5 1080 м средняя 
[Sc|Ac und]
+4.4 -3 59 +3  1026.4  0.4  763  303           
15 06.10.13 120 (ЮВ) 10 км    9/8 1080 м средняя 
[Sc|Ac trans]
+3.3 -1.3 72 +4  1027.2  0.6  763  304    +5       
18 06.10.13 220 (ЮЗ) 10 км    6/4 1000 м средняя 
[Sc|Ac trans]
+1.9 -0.7 83 +1  1028.7  1.3  764  306           
21 06.10.13 310 (СЗ) 10 км    3/0 средняя 
[Ac trans]
+0.1 -0.7 94 +1  1029.1  0.4  765  308           
00 07.10.13 230 (ЮЗ) 10 км    8/0 средняя 
[Ac trans]
+1.2 -0.3 90 +2  1029.4  0.2  765  307           
03 07.10.13 230 (ЮЗ) 4000 м  дымка  9/0 средняя 
[Ac trans]
+1.5 +0.8 95 +2  1030.3  0.9  766  307  -0.8         
06 07.10.13 210 (ЮЗ) 4000 м  дымка  9/0 средняя 
[Ac trans]
+3.3 +1.8 90 +2  1031.7  1.5  767  305           
09 07.10.13 230 (ЮЗ) 4000 м  дымка  9/3 1000 м средняя 
[Sc|Ac trans]
+6.1 +2.9 80 +5  1032.1  0.4  767  302           
12 07.10.13 250 (З) 10 км    9/0 средняя 
[Ac trans]
+8.3 +1 60 +8  1031.7  -0.3  767  300           
15 07.10.13 270 (З) 10 км    9/0 средняя 
[Ac trans]
+6.7 +1.2 68 +7  1031.6  -0.2  767  301    +8.6       
18 07.10.13 270 (З) 10 км    8/0 средняя 
[Ac trans]
+6.6 +2.1 73 +6  1032.2  0.5  767  302           
21 07.10.13 270 (З) 4000 м  дымка  9/4 1000 м средняя 
[Sc|Ac trans]
+6.4 +3.3 81 +6  1032.2  767  302           
00 08.10.13 250 (З) 4000 м    9/3 1000 м средняя 
[Sc|Ac trans]
+4.4 +3.4 93 +4  1032  -0.2  767  304           
03 08.10.13 280 (З) 4000 м  дымка  9/0 средняя 
[Ac trans]
+4.4 +3.6 94 +4  1032  767  304  +4.1         
06 08.10.13 270 (З) 4000 м  дымка  4/0 средняя, верхняя 
[Ac trans|Ci fib]
+7.9 +3.4 73 +7  1032.2  0.3  767  300  +3.6         
09 08.10.13 270 (З) 10 км    4/4 600 м 
[Sc]
+10.6 +2.5 57 +10  1031.5  -0.5  767  297           
12 08.10.13 260 (З) 10 км    4/0 средняя, верхняя 
[Ac trans|Ci fib]
+10.9 +3.3 59 +10  1030.4  -1.2  766  296           
15 08.10.13 260 (З) 10 км    8/0 верхняя 
[Ci fib]
+8.5 +3.2 69 +7  1030.1  -0.2  766  299    +11.6       
18 08.10.13 260 (З) 10 км    6/0 верхняя 
[Ci fib]
+7.9 +5.2 83 +7  1030.4  0.2  766  299           
21 08.10.13 270 (З) 10 км    6/0 средняя, верхняя 
[Ac trans|Ci fib]
+7.7 +6.1 90 +6  1030  -0.4  766  299           
00 09.10.13 280 (З) 4000 м  дымка  8/5 450 м средняя 
[Sc|Ac trans]
+7.7 +5.6 87 +8  1029.4  -0.5  765  299           
03 09.10.13 270 (З) 4000 м  дымка  9/4 600 м средняя 
[Sc|Ac trans]
+7.5 +5 84 +7  1029.6  0.2  765  299  +7.5         
06 09.10.13 270 (З) 4000 м  дымка  5/0 средняя 
[Ac trans]
+9.4 +5.5 77 +9  1029.9  0.3  766  297           
09 09.10.13 260 (З) 10 км    ясно 
+14 +7.8 66 +14  1029.2  -0.5  765  292           
12 09.10.13 240 (ЮЗ) 10 км    ясно 
+14.8 +6.9 59 +15  1028.2  -0.9  764  291           
15 09.10.13 290 (З) 10 км    3/0 верхняя 
[Ci fib]
+11.7 +6.2 69 +12  1028.1  -0.2  764  294    +15.2       
18 09.10.13 тихо ()   3000 м  дымка  3/0 верхняя 
[Ci fib]
+5.9 +4.5 91 +6  1028.4  764  301           
21 09.10.13 тихо ()   3000 м  дымка  ясно 
+5 +4.4 96 +5  1028.2  -0.2  764  302           
00 10.10.13 070 (В) 3000 м  дымка  3/0 средняя 
[Ac trans]
+3.8 +2.8 93 +3  1027.7  -0.6  764  303           
03 10.10.13 080 (В) 1100 м  дымка  3/0 средняя 
[Ac trans]
+3.8 +3.7 99 +3  1027.5  -0.2  764  303  +2.9         
06 10.10.13 090 (В) 4000 м  дымка  ясно 
+9.4 +7.2 86 +8  1027.1  -0.2  763  296  +2.8         
09 10.10.13 090 (В) 10 км    5/0 верхняя 
[Ci fib]
+15.3 +9.6 69 +15  1025.9  -0.8  763  289           
12 10.10.13 110 (В) 10 км    4/0 верхняя 
[Ci fib]
+18 +8.1 52 +18  1024.6  -1.2  762  287           
15 10.10.13 090 (В) 10 км    5/0 верхняя 
[Ci fib]
+13.4 +8.4 72 +13  1024.4  -0.2  762  291    +18.3       
18 10.10.13 090 (В) 10 км    3/0 верхняя 
[Ci fib]
+10.7 +8.3 85 +10  1024.6  762  294           
21 10.10.13 070 (В) 4000 м  дымка  ясно 
+7.6 +7.1 97 +6  1024.9  0.2  762  297           
00 11.10.13 080 (В) 4000 м  дымка  ясно 
+8 +7.5 97 +6  1024.7  -0.2  762  297           
03 11.10.13 090 (В) 0300 м  туман  ?/?  
+7.5 +7.5 100 +5  1024.7  762  297  +7.3         
06 11.10.13 090 (В) 0300 м  слаб. морось{туман}  ?/?  
+9.2 +9.2 100 +8  1025.5  0.8  762  295  +7.1         
09 11.10.13 090 (В) 7-10  4000 м  дымка{морось, туман}  10/10 180 м 
[St]
+11.7 +10.9 95 +12  1024.2  -1.2  761  292           
12 11.10.13 100 (В) 4{10}  10 км  {морось, туман}  8/6 700 м верхняя 
[Sc|Ci fib]
+16.4 +12.6 78 +20  1023.1  -0.9  761  287          затоплена
водой 
15 11.10.13 080 (В) 10 км    6/4 600 м средняя 
[Sc|Ac trans]
+14.1 +11.8 86 +17  1023  -0.1  761  289    +16.9  0.0     
18 11.10.13 090 (В) 10 км    4/1 600 м средняя 
[Sc|Ac trans]
+11.7 +10.6 93 +13  1023.1  761  292           
21 11.10.13 070 (В) 4000 м  дымка  4/0 средняя 
[Ac trans]
+9 +8.6 97 +9  1022.2  -0.8  760  295           
00 12.10.13 020 (С) 1700 м  местами туман поземный  1/0 средняя 
[Ac trans]
+10.4 +10.2 99 +12  1021.6  -0.6  759  293           
03 12.10.13 070 (В) 0600 м  туман  ?/?  
+9.7 +9.7 100 +11  1021.8  0.2  760  294  +6.4         
06 12.10.13 010 (С) 1500 м  дымка{туман}  9/3 100 м средняя, верхняя 
[St|Ac trans|Ci fib]
+11.8 +11.5 98 +16  1022.5  0.8  760  291           
09 12.10.13 360 (С) 4000 м  дымка  9/3 200 м средняя 
[St|Ac trans]
+13.6 +12.5 93 +19  1022.5  760  289           
15 12.10.13 230 (ЮЗ) 4000 м  дымка  8/3 300 м средняя, верхняя 
[Sc|Ac trans|Ci fib]
+13.3 +12 92 +18  1021.9  0.3  760  290    +18.1       
18 12.10.13 320 (СЗ) 4000 м  дымка  8/0 средняя 
[Ac trans]
+11.5 +10.2 92 +13  1022.8  0.8  760  292           
21 12.10.13 360 (С) 4000 м  дымка  5/0 средняя 
[Ac trans]
+12 +9.2 83 +12  1022.6  760  292           
00 13.10.13 020 (С) 4000 м  дымка  5/0 средняя 
[Ac trans]
+10.4 +8.5 88 +10  1023  0.2  760  294           
03 13.10.13 060 (СВ) 4000 м  дымка  8/3 1000 м средняя, верхняя 
[Sc|Ac trans|Ci fib]
+8.3 +7.2 93 +8  1023.6  0.5  761  296  +8.3         
06 13.10.13 040 (СВ) 4000 м  дымка  4/0 верхняя 
[Ci fib]
+11.4 +8.2 81 +11  1024.4  0.9  761  293  +8         
09 13.10.13 050 (СВ) 10 км    ясно 
+15.6 +8.4 62 +16  1023.7  -0.5  761  289           
15 13.10.13 010 (С) 10 км    6/0 средняя 
[Ac trans]
+13.9 +8 68 +14  1022.9  760  290    +16.6       
18 13.10.13 тихо ()   4000 м  дымка  6/0 средняя 
[Ac trans]
+7.9 +6.7 92 +8  1022.8  -0.2  760  297           
21 13.10.13 320 (СЗ) 4000 м  дымка  5/0 средняя 
[Ac trans]
+9.1 +6.9 86 +10  1022.7  -0.2  760  295           
00 14.10.13 300 (СЗ) 4000 м  дымка  4/0 средняя 
[Ac trans]
+10.1 +7.6 84 +11  1022.2  -0.4  760  294           
03 14.10.13 220 (ЮЗ) 4000 м  дымка  6/0 средняя 
[Ac trans]
+10.3 +7.1 81 +10  1021.9  -0.3  760  294  +7.1         
06 14.10.13 230 (ЮЗ) 4000 м  дымка  9/0 средняя 
[Ac trans]
+12.1 +9.1 82 +12  1022.2  0.3  760  292           
09 14.10.13 250 (З) 4000 м  мгла  9/4 1000 м средняя 
[Cu med, cong|Ac trans]
+14.9 +10.5 75 +17  1022  760  288           
12 14.10.13 250 (З) 4000 м  мгла  9/3 600 м кучево-дожд., средняя 
[Cb calv|Ac trans]
+15.1 +10.2 73 +16  1021.7  -0.2  760  288           
15 14.10.13 280 (З) 4000 м  мгла  9/0 средняя 
[Ac trans]
+13.5 +9 74 +14  1022.1  0.3  760  290    +15.2       
18 14.10.13 350 (С) 4000 м  мгла  9/3 600 м средняя 
[Sc|Ac trans]
+12.3 +7.3 72 +13  1023.3  1.1  761  292           
21 14.10.13 тихо ()   4000 м  мгла  10/3 600 м средняя 
[Sc|Ac und]
+10.7 +7.6 81 +11  1023.6  0.1  761  294           
00 15.10.13 тихо ()   4000 м  дымка  10/3 600 м средняя 
[Sc|Ac und]
+10.9 +8.2 83 +11  1023.6  761  293           
03 15.10.13 тихо ()   4000 м  дымка  10/1 600 м средняя 
[Sc|Ac und]
+10.2 +7.6 84 +10  1023.5  761  294  +9.9         
06 15.10.13 120 (ЮВ) 3000 м  дымка  10/0 средняя 
[Ac und]
+12.1 +8.1 77 +13  1024.4  0.9  761  292  +9.8         
09 15.10.13 140 (ЮВ) 10 км    9/0 средняя 
[Ac trans]
+13.9 +7.2 64 +14  1023.8  -0.5  761  291           
12 15.10.13 140 (ЮВ) 10 км    9/0 средняя 
[Ac trans]
+14.7 +7.3 61 +16  1022.6  -1.2  760  289           
15 15.10.13 160 (Ю) 3000 м  дымка  10/3 300 м средняя 
[Sc|Ac und]
+12.3 +9.9 85 +14  1021.4  -1.2  759  291    +14.7       
18 15.10.13 130 (ЮВ) 1300 м  местами туман поземный  5/3 300 м средняя 
[Sc|Ac trans]
+10.2 +9.8 97 +12  1021.1  -0.3  759  293           
21 15.10.13 тихо ()   1100 м  дымка{туман}  3/0 средняя 
[Ac trans]
+8.6 +8.5 99 +9  1019.8  -1.3  758  295           
00 16.10.13 110 (В) 2000 м  местами туман поземный  9/0 средняя 
[Ac trans]
+8.8 +8.1 95 +8  1018.2  -1.5  757  294           
03 16.10.13 090 (В) 4000 м  дымка  9/0 средняя 
[Ac trans]
+8.5 +6.9 90 +9  1016.8  -1.4  756  294  +7         
06 16.10.13 100 (В) 4000 м  дымка  9/0 средняя, верхняя 
[Ac trans|Ci fib]
+10.3 +8.5 89 +10  1015.7  -1  755  292           
09 16.10.13 100 (В) 4000 м  дымка  9/0 средняя, верхняя 
[Ac trans|Ci fib]
+14.3 +10.1 76 +15  1013.7  -1.9  754  287           
12 16.10.13 200 (Ю) 4000 м  мгла  6/0 средняя, верхняя 
[Ac trans|Ci fib]
+18.4 +10.1 58 +20  1011.8  -1.7  752  282           
15 16.10.13 тихо ()   3000 м  дымка  9/0 средняя 
[Ac trans]
+13 +10 82 +14  1011.6  -0.4  752  287    +19.1       
18 16.10.13 тихо ()   3000 м  дымка  8/0 средняя 
[Ac trans]
+10.8 +8.6 86 +11  1011.3  -0.3  752  290           
21 16.10.13 090 (В) 3000 м  дымка  4/0 средняя, верхняя 
[Ac trans|Ci fib]
+9.6 +8.8 95 +11  1010.8  -0.5  751  291           
00 17.10.13 050 (СВ) 3000 м  дымка  8/0 средняя 
[Ac trans]
+10.3 +9.6 95 +11  1010.3  -0.4  751  290           
03 17.10.13 060 (СВ) 3000 м  дымка  9/0 средняя, верхняя 
[Ac trans|Ci fib]
+10.1 +9.3 95 +10  1010.1  -0.2  751  290  +9.2         
06 17.10.13 070 (В) 4000 м  слаб. ливневой дождь  10/4 600 м кучево-дожд., средняя 
[Cb calv|Ac und]
+10.7 +10 95 +11  1010.4  0.2  751  289           
09 17.10.13 080 (В) 4000 м  слаб. ливневой дождь  10/4 600 м кучево-дожд., средняя 
[Cb calv|Ac und]
+12.8 +11.2 90 +15  1010.4  0.1  751  287           
12 17.10.13 050 (СВ) 4000 м  в посл. час ливневой дождь  10/4 600 м кучево-дожд., средняя 
[Cb calv|Ac und]
+13.5 +11.9 90 +17  1010  -0.3  751  286           
15 17.10.13 080 (В) 4000 м  дымка{ливн. осадки}  9/1 600 м кучево-дожд., средняя 
[Cb calv|Ac trans]
+13.2 +12.1 93 +16  1010  751  286    +13.8     
18 17.10.13 090 (В) 4000 м  слаб. ливневой дождь  10/3 600 м кучево-дожд., средняя 
[Cb calv|Ac und]
+13.2 +11.5 89 +15  1010.2  0.1  751  286           
21 17.10.13 090 (В) 4000 м  слаб. ливневой дождь  10/4 600 м кучево-дожд., средняя 
[Cb calv|Ac und]
+13 +12.3 96 +17  1010.5  0.3  751  287           
00 18.10.13 080 (В) 6{10}  4000 м  слаб. ливневой дождь  10/8 800 м кучево-дожд., средняя 
[Cb calv|Ac und]
+13.1 +12.6 97 +17  1008.6  -1.9  750  286           
03 18.10.13 080 (В) 7-10{11}  4000 м  в посл. час ливневой дождь  10/8 180 м кучево-дожд., средняя 
[Cb calv|Ac und]
+12.9 +12.5 97 +17  1007.2  -1.4  749  286  +12.6    0.6     
09 18.10.13 100 (В) 7-10{11}  10 км    9/5 240 м средняя 
[Sc|Ac trans]
+15.4 +13.4 88 +21  1005.8  -1.5  748  283           
12 18.10.13 080 (В) 6{11}  10 км    9/0 средняя 
[Ac trans]
+17 +14.2 84 +24  1004.1  -1.6  747  280           
15 18.10.13 090 (В) 7-10{11}  10 км    10/4 300 м кучево-дожд., средняя 
[Cb calv|Ac und]
+14.8 +13.2 90 +20  1003.5  -0.5  746  282    +17.4       
18 18.10.13 090 (В) 5{13}  4000 м  дымка  10/3 1000 м кучево-дожд., средняя 
[Cb calv|Ac und]
+14.1 +12.9 92 +19  1003.5  746  283           
21 18.10.13 080 (В) 7-10  4000 м  дымка  9/1 1000 м кучево-дожд., средняя 
[Cb calv|Ac trans]
+13.4 +12.6 95 +17  1001.3  -2.1  744  283           
00 19.10.13 110 (В) 3{12}  4000 м  дымка  10/8 180 м кучево-дожд., средняя 
[Cb calv|Ac und]
+13 +12.4 96 +18  1000.5  -0.8  744  284           
03 19.10.13 080 (В) 3000 м  дымка  10/5 180 м средняя 
[St|Ac und]
+12.4 +11.8 96 +16  1000.2  -0.3  744  284  +12.4         
06 19.10.13 150 (ЮВ) 4000 м  дымка  9/4 200 м кучево-дожд., средняя 
[Cb calv|Ac trans]
+13.3 +12.6 95 +18  1002  1.7  745  284           
09 19.10.13 290 (З) 10 км    9/1 1000 м кучево-дожд., средняя 
[Cb calv|Ac trans]
+17 +13.4 79 +23  1002.3  0.4  745  280           
12 19.10.13 320 (СЗ) 10 км  {ливн. осадки}  9/5 300 м кучево-дожд., средняя 
[Cb calv|Ac trans]
+16.5 +13.6 83 +24  1003.4  746  281           
15 19.10.13 340 (С) 8-12{12}  1800 м  гроза, ливневой дождь  10/9 150 м кучево-дожд., средняя 
[Cb cap|Ac und]
+11.9 +11.7 99 +14  1006.3  2.6  748  287    +17.2  27     
18 19.10.13 350 (С) 8-12{12}  4000 м  слаб. ливневой дождь{гроза}  10/9 210 м кучево-дожд., средняя 
[Cb calv|Ac und]
+9.6 +8.9 95 +7  1010.2  3.7  751  291           
21 19.10.13 350 (С) 11-14{14}  4000 м  слаб. ливневой дождь  10/9 240 м кучево-дожд., средняя 
[Cb calv|Ac und]
+8.9 +8 94 +6  1013.9  3.6  754  293           
00 20.10.13 330 (СЗ) 9-12{16}  4000 м  слаб. ливневой дождь  10/9 240 м кучево-дожд., средняя 
[Cb calv|Ac und]
+6.2 +5.4 95 +3  1019.2  5.2  758  298           
03 20.10.13 350 (С) 5{12}  10 км  {ливн. осадки}  10/8 450 м средняя 
[Sc|Ac und]
+4.9 +3 87 +3  1022.9  3.6  760  300  +4.9    53     
06 20.10.13 320 (СЗ) 3{12}  10 км  {ливн. осадки}  10/6 480 м средняя 
[Sc|Ac und]
+4.4 +1.6 82 +3  1026  3.1  763  302  +4.2         
09 20.10.13 310 (СЗ) 10 км    5/5 630 м 
[Sc]
+6.2 +0.9 69 +5  1028.2  2.2  764  301           
12 20.10.13 030 (СВ) 10 км    ясно 
+10 -0.6 48 +10  1028.1  764  297           
15 20.10.13 260 (З) 10 км    3/0 средняя 
[Ac trans]
+5.4 -0.8 64 +6  1029  0.8  765  302    +10.5       
18 20.10.13 250 (З) 10 км    ясно 
+4.4 +2.2 86 +4  1029.7  0.1  765  303           
21 20.10.13 250 (З) 4000 м  дымка  ясно 
+2.5 +1 90 +2  1029.7  0.3  765  305           
00 21.10.13 270 (З) 4000 м  дымка  5/0 средняя 
[Ac trans]
+1.9 +1.3 96 +1  1029.1  -0.6  765  306           
03 21.10.13 230 (ЮЗ) 0700 м  туман  9/8 30 м средняя 
[St|Ac trans]
+1.2 +1.2 100 -1  1028  -1.1  764  306  +0.8         
06 21.10.13 230 (ЮЗ) 0200 м  туман  ?/?  
+3.3 +3.3 100 +1  1027.4  -0.4  764  303  +0.7         
09 21.10.13 230 (ЮЗ) 7-10  10 км  {туман}  8/8 540 м 
[Sc]
+12 +8.5 79 +11  1025.3  -1.8  762  293           
12 21.10.13 250 (З) 8-12{14}  10 км  {туман}  8/5 800 м средняя 
[Sc diur, vesp|Ac trans]
+13 +8.2 73 +12  1023.7  -1.4  761  291           
15 21.10.13 260 (З) 10 км    8/5 800 м средняя 
[Sc|Ac trans]
+11 +8.5 85 +10  1023.2  -0.6  761  293    +13.6       
18 21.10.13 230 (ЮЗ) 6-10{12}  10 км    9/5 800 м средняя 
[Sc|Ac trans]
+10.7 +8.3 85 +9  1022.5  -0.6  760  293           
21 21.10.13 220 (ЮЗ) 10 км    8/4 600 м средняя 
[Sc|Ac trans]
+9.2 +8.1 93 +8  1021.7  -0.9  759  295           
00 22.10.13 240 (ЮЗ) 10 км    9/4 600 м средняя 
[Sc|Ac trans]
+9.1 +8.4 95 +9  1020.4  -1.3  758  294           
03 22.10.13 230 (ЮЗ) 4000 м  дымка  10/8 450 м средняя 
[Sc|Ac und]
+8.3 +8 98 +7  1019  -1.4  757  295  +7.9         
06 22.10.13 220 (ЮЗ) 4000 м  дымка  10/8 180 м средняя 
[Frnb|Ac und]
+9.4 +8.7 95 +8  1018.4  -0.6  757  293           
09 22.10.13 250 (З) 9-12{13}  10 км    10/8 450 м средняя 
[Frnb|Ac und]
+12.4 +10.7 89 +13  1017.1  -1.2  756  289           
15 22.10.13 260 (З) 3{12}  2500 м  дымка{дождь}  10/8 120 м средняя 
[Sc|Ac und]
+11.3 +10.9 97 +13  1018.2  1.4  757  291    +12.6  0.0     
18 22.10.13 280 (З) 2{12}  2500 м  дымка{дождь}  9/5 630 м средняя 
[Sc|Ac trans]
+11.2 +10.8 97 +13  1019.2  0.9  758  291           
21 22.10.13 010 (С) 10 км    10/4 300 м средняя 
[Sc|Ac und]
+8.8 +6.2 84 +7  1021.7  2.3  759  295           
00 23.10.13 040 (СВ) 10 км    9/5 570 м средняя 
[Sc|Ac trans]
+8.1 +5.9 86 +7  1023.5  1.7  761  297           
03 23.10.13 060 (СВ) 7-10{11}  10 км    9/6 600 м средняя 
[Sc|Ac trans]
+6.5 +3.5 81 +4  1026.8  3.1  763  300  +6.5         
06 23.10.13 060 (СВ) 9-12{12}  10 км    10/6 630 м средняя 
[Sc|Ac und]
+5.5 +2.6 82 +2  1029.4  2.1  765  302  +5.5         
09 23.10.13 090 (В) 8-11{12}  10 км    10/8 800 м средняя 
[Sc|Ac und]
+6.3 +2.1 74 +3  1031  1.9  766  302           
12 23.10.13 080 (В) 5{12}  10 км    8/8 960 м 
[Sc]
+7.5 +1.5 66 +6  1032.5  1.5  767  301           
15 23.10.13 060 (СВ) 4{10}  10 км    3/0 средняя 
[Ac trans]
+4.1 +0.4 77 +2  1034.3  1.7  769  305    +8.1       
18 23.10.13 080 (В) 5{10}  10 км    ясно 
+3.4 -0.3 77 +1  1035.5  1.1  770  306           
21 23.10.13 080 (В) 10 км    ясно 
+1.2 -0.9 86 -1  1036.9  1.3  770  309           
00 24.10.13 090 (В) 10 км    ясно 
-0.1 -1.7 89 -3  1036.4  -0.5  770  311           
03 24.10.13 080 (В) 10 км    ясно 
-1.7 -2.5 94 -4  1036.5  770  313  -1.7         
06 24.10.13 090 (В) 10 км    1/0 верхняя 
[Ci fib]
+0.7 -1.2 87 -2  1036.7  0.3  770  310           
09 24.10.13 090 (В) 10 км    ясно 
+5.5 +0 68 +3  1035.3  -1.1  769  304           
12 24.10.13 090 (В) 10 км    ясно 
+8.5 +0 55 +7  1033.3  -1.9  768  300           
15 24.10.13 100 (В) 10 км    ясно 
+5.3 -0.5 66 +3  1032.2  -1.1  767  303    +8.8       
18 24.10.13 090 (В) 10 км    ясно 
+1.4 -0.9 85 -1  1031.8  -0.5  767  307           
21 24.10.13 090 (В) 10 км    ясно 
-0.2 -1.8 89 -1  1030.7  -1.1  766  309           
00 25.10.13 080 (В) 10 км    ясно 
-2 -3.4 90 -4  1029.5  -1.3  765  311           
03 25.10.13 080 (В) 10 км    3/0 верхняя 
[Ci fib]
-2.5 -3.6 92 -4  1028.8  -0.7  764  311  -3.3         
06 25.10.13 100 (В) 10 км    1/0 верхняя 
[Ci fib]
+2.3 +0.5 88 +2  1028.5  764  305           
09 25.10.13 180 (Ю) 10 км    1/0 верхняя 
[Ci fib]
+10.5 +3.2 61 +11  1026.6  -1.6  763  296           
12 25.10.13 210 (ЮЗ) 10 км    3/0 верхняя 
[Ci fib]
+13.5 +3 49 +14  1025  -1.5  762  292           
15 25.10.13 290 (З) 10 км    ясно 
+9.9 +3.4 64 +10  1024.8  -0.3  762  296    +13.7       
18 25.10.13 220 (ЮЗ) 10 км    ясно 
+6.3 +1.9 73 +7  1024  -0.8  761  299           
21 25.10.13 290 (З) 10 км    5/0 средняя 
[Ac trans]
+4.9 +2.3 83 +5  1023.3  -0.6  761  301           
00 26.10.13 300 (СЗ) 4000 м  дымка  8/3 300 м средняя 
[Sc|Ac trans]
+6.9 +5.4 90 +6  1022.6  -0.5  760  298           
03 26.10.13 070 (В) 4000 м  дымка  9/1 1000 м кучево-дожд., средняя 
[Cb calv|Ac trans]
+5.8 +4.7 93 +7  1022.8  760  299  +3.6         
06 26.10.13 320 (СЗ) 4000 м  в посл. час гроза{ливн. осадки}  8/3 1000 м кучево-дожд., средняя 
[Cb calv|Ac trans]
+7.6 +6.9 95 +9  1023.5  0.8  761  297           
09 26.10.13 300 (СЗ) 4000 м  дымка  10/6 180 м кучево-дожд., средняя 
[Cb calv|Ac und]
+9.4 +8.5 94 +10  1023.5  761  295           
12 26.10.13 340 (С) 4000 м  дымка  10/6 300 м средняя 
[St|Ac und]
+11.4 +9.8 90 +12  1023  -0.5  760  292           
15 26.10.13 360 (С) 10 км    10/6 450 м средняя 
[Sc|Ac und]
+11.3 +9.1 86 +11  1023.8  0.8  761  293    +11.8  0.0     
18 26.10.13 340 (С) 4000 м  дымка  10/6 420 м средняя 
[Sc|Ac und]
+10.2 +8.4 89 +10  1024.3  0.5  761  294           
21 26.10.13 070 (В) 4000 м  дымка  10/10 400 м 
[Sc]
+8.8 +7.9 94 +10  1024.1  -0.3  761  296           
00 27.10.13 170 (Ю) 4000 м  дымка  10/10 450 м 
[Sc]
+8.5 +7.6 94 +10  1023.6  -0.5  761  296           
03 27.10.13 270 (З) 4000 м  дымка  9/9 570 м 
[Sc]
+8.6 +6.6 87 +9  1022.6  -1  760  296  +8.2         
06 27.10.13 240 (ЮЗ) 10 км    9/9 600 м 
[Sc]
+9.1 +5.6 79 +7  1022.5  760  295           
09 27.10.13 250 (З) 10 км    9/6 630 м средняя 
[Sc|Ac trans]
+10 +6 76 +8  1020.7  -1.7  759  294           
12 27.10.13 250 (З) 7-10{10}  10 км    9/5 630 м средняя 
[Sc|Ac trans]
+10.4 +6.5 77 +9  1019.2  -1.4  758  293           
15 27.10.13 250 (З) 5{10}  10 км    10/6 420 м средняя 
[Sc|Ac und]
+9.8 +7.3 84 +9  1018.3  -0.9  757  293    +10.8       
18 27.10.13 240 (ЮЗ) 5{10}  4000 м  в посл. час ливневой дождь  10/6 330 м кучево-дожд., средняя 
[Cb calv|Ac und]
+9.3 +8.1 92 +8  1017.3  -1  756  293           
21 27.10.13 250 (З) 4000 м  слаб. ливневой дождь  10/6 270 м кучево-дожд., средняя 
[Cb calv|Ac und]
+9.9 +9.1 95 +9  1016.9  -0.4  756  292           
00 28.10.13 270 (З) 1900 м  слаб. морось{дождь}  10/10 100 м 
[St]
+10.1 +9.9 99 +11  1016  -0.7  755  292           
03 28.10.13 290 (З) 3000 м  дымка{морось}  10/8 120 м кучево-дожд., средняя 
[Cb calv|Ac und]
+10.2 +9.7 97 +11  1016.5  0.5  756  292  +9.3    0.6     
06 28.10.13 280 (З) 4000 м  дымка{морось}  10/6 330 м средняя 
[Sc|Ac und]
+10.8 +9.7 93 +12  1017.8  1.3  757  292           
09 28.10.13 290 (З) 4000 м  дымка  10/6 480 м средняя 
[Sc|Ac und]
+12 +9.1 82 +12  1018  0.2  757  290           
12 28.10.13 250 (З) 10 км    10/10 570 м 
[Sc]
+12.8 +9.4 80 +13  1017.1  -0.9  756  289           
15 28.10.13 240 (ЮЗ) 4000 м  дымка  10/10 330 м 
[Sc]
+12.1 +10.7 91 +14  1017.3  0.1  756  290    +12.8       
18 28.10.13 220 (ЮЗ) 4000 м  дымка{морось}  10/10 600 м 
[Sc]
+11.5 +10.8 95 +13  1017.1  -0.1  756  290           
21 28.10.13 230 (ЮЗ) 4000 м  дымка  10/10 150 м 
[Sc]
+11.2 +10.6 96 +12  1016.8  -0.3  756  291           
00 29.10.13 230 (ЮЗ) 4000 м  дымка  10/10 330 м 
[Sc]
+11.4 +10.5 94 +13  1016.4  -0.3  756  290           
03 29.10.13 250 (З) 1200 м  слаб. морось  10/10 60 м 
[St]
+11.4 +11.2 99 +13  1017.1  0.7  756  290  +10.9    0.0     
06 29.10.13 250 (З) 4000 м  дымка{морось}  9/9 180 м 
[Sc]
+11.5 +11 97 +13  1018.4  1.2  757  291           
09 29.10.13 250 (З) 4000 м  дымка  9/6 750 м средняя 
[Sc|Ac trans]
+14.2 +10.4 78 +16  1018.3  757  288           
12 29.10.13 280 (З) 10 км    5/5 660 м 
[Sc]
+13.5 +10.7 83 +16  1018.9  0.4  757  289           
15 29.10.13 320 (СЗ) 3000 м  дымка  3/0 средняя 
[Ac trans]
+11.6 +10.3 92 +14  1019.4  0.5  758  291    +15.1  0.0     
18 29.10.13 030 (СВ) 3000 м  местами туман поземный  3/0 средняя 
[Ac trans]
+9.1 +8.6 97 +10  1020.8  1.2  759  294           
21 29.10.13 тихо ()   1500 м  местами туман поземный  6/0 средняя 
[Ac trans]
+8.7 +8.4 98 +9  1020.6  -0.2  759  295           
00 30.10.13 тихо ()   1500 м  местами туман поземный  6/0 средняя 
[Ac trans]
+9.1 +9 99 +9  1020.8  0.2  759  294           
03 30.10.13 тихо ()   0700 м  туман местами  4/0 средняя 
[Ac trans]
+6.5 +6.5 100 +7  1021.4  0.5  759  298  +6.2         
06 30.10.13 тихо ()   0100 м  туман  ?/?  
+8.2 +8.2 100 +8  1022.5  1.1  760  296  +6         
09 30.10.13 090 (В) 0200 м  туман  ясно 
+10.1 +10.1 100 +11  1022.1  -0.3  760  293           
12 30.10.13 160 (Ю) 0300 м  туман  ?/?  
+11.2 +11.2 100 +15  1021.8  -0.3  760  292           
15 30.10.13 310 (СЗ) 0100 м  туман  ?/?  
+9.4 +9.4 100 +10  1021.7  -0.1  759  294    +12.3       
18 30.10.13 тихо ()   <0100 м  туман  ?/?  
+7.9 +7.9 100 +8  1022.2  0.4  760  296           
21 30.10.13 330 (СЗ) 0100 м  туман  ?/?  
+7.7 +7.7 100 +9  1021.8  -0.3  759  296           
00 31.10.13 тихо ()   0100 м  туман  ?/?  
+7.2 +7.2 100 +7  1021.3  -0.5  759  297           
03 31.10.13 270 (З) 0100 м  туман  ?/?  
+7.8 +7.8 100 +8  1021.3  759  296  +5.7         
06 31.10.13 280 (З) 0200 м  туман  ?/?  
+7.6 +7.6 100 +7  1022  0.6  760  296           
09 31.10.13 280 (З) 2500 м  дымка{туман}  10/6 120 м средняя 
[St|Ac und]
+9.2 +8.6 96 +8  1021.8  -0.1  760  295           
12 31.10.13 290 (З) 1400 м  слаб. морось{туман}  10/10 100 м 
[St]
+10.5 +10 97 +12  1022.5  0.6  760  293           
15 31.10.13 340 (С) 3000 м  дымка{морось}  10/10 150 м 
[Sc]
+12.2 +10.6 90 +14  1024.2  1.7  761  292    +12.2  0.0     
18 31.10.13 330 (СЗ) 10 км  {морось}  1/0 средняя 
[Ac trans]
+8.4 +7.2 92 +8  1026.6  2.2  763  297           
21 31.10.13 340 (С) 10 км    ясно 
+7.3 +5.7 90 +7  1028.2  1.5  764  299           
00 01.11.13 330 (СЗ) 10 км    ясно 
+5.5 +4.2 91 +4  1029.7  1.4  765  302           
03 01.11.13 330 (СЗ) 10 км    ясно 
+5 +3.6 91 +4  1030.3  0.5  766  302  +4.5         
06 01.11.13 030 (СВ) 10 км    ясно 
+8.1 +5.1 81 +9  1031.2  767  299  +3.5         
09 01.11.13 110 (В) 10 км    3/3 600 м 
[Sc]
+12.2 +4.9 61 +13  1030.6  -0.5  766  295           
12 01.11.13 080 (В) 10 км    ясно 
+13.1 +3.6 52 +14  1029.4  -1.1  765  294           
15 01.11.13 070 (В) 10 км    ясно 
+8.2 +2.6 68 +8  1029.1  -0.4  765  299    +13.9       
Время (UTC), дата Ветер
(°,м/с) 
Видим.   Явления Облачность Т
(°С)
Тd
(°С)
f(%) Тe
(°С)
Pmin
(гПа)
dP
(гПа)
Po
(мм)
O2
(г/м3)
Тmin Tmax R s Состояние
почвы